Powrót do katalogu

CZ-6A DEB

AktywnyPO
NORAD 60767·DEBRIS·🇨🇳 China

Wystrzelony Aug 6, 2024 z Taiyuan Satellite Launch Center

Loading…

Następne Przeloty (najbliższe 24 godziny)

TLE

ŚwieżeSource: Space-Track

Epoka: Sep 14, 2026, 10:49 UTC

1 60767U 24140ES  26257.45095951  .00000613  00000-0  29303-3 0  9997
2 60767  88.9837 264.0368 0058612 266.8149  92.6333 14.17117033108023

Śledź CZ-6A DEB w czasie rzeczywistym z AllMySat

Download on the App Store